Regional Weather Roundup
Issued by NWS

Home | Current Version | Previous Version | Text Only | Print | Product List | Glossary On
Versions: 1 2 3 4 5 6 7 8 9 10 11 12 13 14 15 16 17 18 19 20 21 22 23 24 25 26 27
000
ASUS42 KTBW 300716
RWRFL
FLORIDA REGIONAL WEATHER ROUNDUP
NATIONAL WEATHER SERVICE TAMPA BAY RUSKIN FL
300 AM EDT THU MAR 30 2017

NOTE: "FAIR" INDICATES FEW OR NO CLOUDS BELOW 12,000 FEET WITH NO
SIGNIFICANT WEATHER AND/OR OBSTRUCTIONS TO VISIBILITY.

FLZ001>010-012>015-112-114-115-300800-
PANHANDLE FLORIDA

CITY           SKY/WX    TMP DP  RH WIND       PRES   REMARKS
PENSACOLA      CLEAR     71  65  81 S10       29.92F
PENSACOLA NAS  PTCLDY    71  66  84 S13       29.92F
MILTON NAS     LGT RAIN  64  64 100 SE5       29.94  FOG
CRESTVIEW      CLEAR     58  56  93 CALM      29.95S FOG
DUKE FIELD     FAIR      61  60  95 S5        29.93S
VALPARAISO     CLEAR     69  65  86 S10       29.94F
MARY ESTHER    CLEAR     69  65  89 S8        29.93S
PANAMA CITY    FAIR      57  54  89 CALM      29.93F
TYNDALL AFB    CLEAR     62  60  93 SE6       29.94F
APALACHICOLA   CLEAR     61  59  93 CALM      29.95F

STATION/POSITION SKY/WX   TEMP    WIND        PRES    WAVE   SWELL
                          AIR SEA DIR/SP/G            HT/PER HT/PER
                          (F)     (DEG/KT/KT) (MB)    (FT/S) (FT/S)
30.1N   87.6W              71 72  150/ 14/ 17 1012.7F   4/ 6
29.2N   88.2W              73 73  150/ 17/ 21 1012.5F   5/ 6
28.8N   86.0W              72 72              1014.1F   2/ 5
PANAMA CITY BEAC                  150/ 11/ 12   N/A
TOWER C                    70     140/  9/  9 1014.9F
28.5N   84.5W              71 71  130/ 10/ 12 1014.4F   1/ 3

$$
FLZ011-016>038-118-127-128-134-139-239-300800-
NORTH FLORIDA

CITY           SKY/WX    TMP DP  RH WIND       PRES   REMARKS
MARIANNA       CLEAR     62  56  80 CALM      29.94F
TALLAHASSEE    CLEAR     58  55  90 E5        29.96F
PERRY          CLEAR     58  57  97 CALM      29.98F FOG
CROSS CITY     CLEAR     59  57  94 E3        29.99S
LAKE CITY      FAIR      59  54  82 CALM      30.00S
GAINESVILLE    CLEAR     58  52  80 CALM      29.99F
WILLISTON      CLEAR     61  55  82 CALM      30.00F
PALATKA        FAIR      59  59 100 CALM      30.00F
MAYPORT NAS    PTCLDY    68  64  87 CALM      30.00F
JACKSONVILLE   CLOUDY    69  62  78 SE7       29.98F
JAX NAS        MOCLDY    73  64  73 SE6       30.00F
FERNANDINA BEA MOCLDY    72  66  83 SE3       29.98F
ST AUGUSTINE   PTCLDY    65  61  87 CALM      30.01F

STATION/POSITION SKY/WX   TEMP    WIND        PRES    WAVE   SWELL
                          AIR SEA DIR/SP/G            HT/PER HT/PER
                          (F)     (DEG/KT/KT) (MB)    (FT/S) (FT/S)
SHELL POINT      NOT AVBL
KEATON BEACH               62      50/  4/  5 1014.5F
CEDAR KEY                  70        CALM     1016.0F
FERNANDINA                        120/  3/  5   N/A
30.7N   81.3W                 68                N/A     3/11   2/11
MAYPORT                           100/  3/  3   N/A
31.4N   80.9W              65 64     CALM     1016.0F   2/11
ST AUGUSTINE               69 69     CALM     1016.6F

$$
FLZ040-043>046-052-053-057-058-063-144-300800-
INTERIOR CENTRAL FLORIDA

CITY           SKY/WX    TMP DP  RH WIND       PRES   REMARKS
OCALA          CLEAR     59  52  77 CALM      30.00F
THE VILLAGES     N/A     64  59  82 CALM      29.90F
LEESBURG       CLEAR     68  60  75 CALM      30.00F
SANFORD        PTCLDY    67  59  75 SE3       30.00F
ORLANDO EXEC   CLEAR     69  58  67 SE3       30.00F
ORLANDO INTL   CLEAR     68  59  73 CALM      30.00F
KISSIMMEE      CLEAR     69  62  78 SE3       30.01F
WINTER HAVEN   PTCLDY    67  60  78 CALM      30.01F
LAKELAND       PTCLDY    63  63 100 CALM      30.01S
BARTOW         FAIR      63  63 100 CALM      30.01F
OKEECHOBEE     CLOUDY   N/A N/A N/A CALM      30.02S

$$
FLZ041-047-054-059-064-141-147-300800-
EAST CENTRAL FLORIDA

CITY           SKY/WX    TMP DP  RH WIND       PRES   REMARKS
DAYTONA BEACH  CLEAR     70  61  73 S8        30.01F
DELAND         CLEAR     64  59  82 CALM      30.00S
JFK SPACE CTR  CLEAR     65  64  96 CALM      29.99F
CAPE CANAVERAL CLEAR     68  65  90 SW5       30.00F
PATRICK AFB    CLEAR     69  66  89 SW7       30.00F
MELBOURNE      CLEAR     70  65  84 CALM      30.02F
VERO BEACH     CLEAR     67  64  90 SW5       30.02S
FT PIERCE      PTCLDY    64  63  96 SW3       30.01F
STUART         CLEAR     70  64  83 SW5       30.02F

STATION/POSITION SKY/WX   TEMP    WIND        PRES    WAVE   SWELL
                          AIR SEA DIR/SP/G            HT/PER HT/PER
                          (F)     (DEG/KT/KT) (MB)    (FT/S) (FT/S)
TRIDENT PIER                      200/  5/  6   N/A
28.4N   80.5W                 73                N/A     2/11   2/11
27.5N   80.2W                 75                N/A     3/10   2/11

$$
FLZ050-056-061-142-242-148-248-149-249-151-251-155-255-
160-260-300800-
WEST CENTRAL FLORIDA

CITY           SKY/WX    TMP DP  RH WIND       PRES   REMARKS
CRYSTAL RIVER  FAIR      61  57  88 CALM      30.01S
INVERNESS      FAIR      61  59  94 CALM      30.01S
BROOKSVILLE    CLEAR     61  60  97 CALM      30.01F VSB 3/4
CLEARWATER AIR FAIR      66  64  94 CALM      30.00F
ST PETE CLEARW PTCLDY    69  64  84 SE3       30.00F
TAMPA INTL     PTCLDY    69  64  84 CALM      30.01F
TAMPA EXEC     PTCLDY    63  59  88 CALM      30.01F
PLANT CITY     PTCLDY    64  63  94 CALM      30.03S
MACDILL AFB    CLEAR     64  64  97 CALM      30.00F
PETER O KNIGHT PTCLDY    70  68  94 CALM      30.01S
ST PETERSBURG  MOCLDY    72  66  81 E5        29.99F
SARASOTA       CLEAR     66  62  87 CALM      30.00F
VENICE           N/A     66  64  94 CALM      30.01F

STATION/POSITION SKY/WX   TEMP    WIND        PRES    WAVE   SWELL
                          AIR SEA DIR/SP/G            HT/PER HT/PER
                          (F)     (DEG/KT/KT) (MB)    (FT/S) (FT/S)
27.3N   84.2W                 74                N/A     2/ 6
CLEARWATER BEACH                   90/  3/  4   N/A
MIDDLE TAMPA BAY                  160/  2/  3   N/A
VENICE                     69 73  130/  2/  2 1015.8F

$$
FLZ066-069-070-075>078-162-262-165-265-300800-
SOUTHWEST FLORIDA AND KEYS

CITY           SKY/WX    TMP DP  RH WIND       PRES   REMARKS
PUNTA GORDA    PTCLDY    63  61  93 CALM      30.02F
FT MYERS       PTCLDY    72  67  84 CALM      30.00F
SOUTHWEST INTL CLEAR     68  63  84 CALM      30.00F
NAPLES         PTCLDY    70  68  93 CALM      30.00F
IMMOKALEE      FAIR      64  63  94 CALM      30.01R
MARATHON       CLEAR     76  64  66 E5        30.00S
KEY WEST NAS   PTCLDY    74  64  71 E12       29.99F
KEY WEST INTL  PTCLDY    76  65  68 E13       30.00F

STATION/POSITION SKY/WX   TEMP    WIND        PRES    WAVE   SWELL
                          AIR SEA DIR/SP/G            HT/PER HT/PER
                          (F)     (DEG/KT/KT) (MB)    (FT/S) (FT/S)
NAPLES                        75              1016.1F
26.0N   85.6W              76     120/ 12/ 14 1014.3F   3/ 6
DRY TORTUGAS               76     110/ 14/ 15 1015.3F
SAND KEY                   76     120/ 14/ 16 1016.1F
LONG KEY                   76 78  140/ 10/ 12 1016.2F

$$
FLZ067-068-071>074-168-172>174-300800-
SOUTHEAST FLORIDA

CITY           SKY/WX    TMP DP  RH WIND       PRES   REMARKS
W PALM BEACH   PTCLDY    70  63  78 CALM      30.01F
FT LAUDER-EXEC PTCLDY    71  61  70 CALM      30.01F
FT LAUDERDALE  PTCLDY    74  63  68 SE8       30.00F
POMPANO BEACH  PTCLDY    75  64  68 SE9       30.01F
PEMBROKE PINES CLEAR     69  62  78 CALM      30.02F
OPA LOCKA      PTCLDY    70  62  76 CALM      30.02F
MIAMI          PTCLDY    73  62  68 E6        30.01F
WEST KENDALL   PTCLDY    66  63  90 CALM      30.01F
HOMESTEAD      CLEAR     71  65  80 E5        30.00F

STATION/POSITION SKY/WX   TEMP    WIND        PRES    WAVE   SWELL
                          AIR SEA DIR/SP/G            HT/PER HT/PER
                          (F)     (DEG/KT/KT) (MB)    (FT/S) (FT/S)
PORT EVERGLADES            76     130/  6/ 10 1016.3F
LAKE WORTH                        140/ 10/ 11   N/A
FOWEY ROCKS                75 77  100/ 13/ 15 1016.6F
SETTLEMENT POINT           72     140/  6/  8 1016.7F

$$





USA.gov is the U.S. government's official web portal to all federal, state and local government web resources and services.